Regional Weather Roundup
Issued by NWS

Home | Current Version | Previous Version | Text Only | Print | Product List | Glossary Off
Versions: 1 2 3 4 5 6 7 8 9 10 11 12 13 14 15 16 17 18 19 20 21 22 23 24 25 26 27 28 29 30 31 32 33 34 35 36 37 38 39 40 41 42 43 44 45 46 47 48 49 50

000
ASUS45 KSLC 272210
RWRUT

UTAH REGIONAL WEATHER ROUNDUP
NATIONAL WEATHER SERVICE SALT LAKE CITY UT
400 PM MDT FRI MAY 27 2016

UTZ001>011-023>025-272300-

NORTHERN UTAH

CITY           SKY/WX    TMP DP  RH WIND       PRES   REMARKS
BRIGHAM CITY     N/A     65  37  34 E16       29.92F
HILL AFB       MOSUNNY   68  35  29 W10       29.92F
LOGAN          PTSUNNY   57  49  74 NE16      29.96S
OGDEN          MOSUNNY   71  35  26 NW7       29.90F
PROVO AIRPORT  PTSUNNY   63  37  39 W10       29.97S
SALT LAKE CITY PTSUNNY   70  33  25 W12       29.91F
VERNAL         CLOUDY    67  31  26 VRB5      29.89F
WENDOVER       MOSUNNY   70  37  30 NE15      29.89F
HEBER CITY     PTSUNNY   64  37  36 SW20G25   29.94R
WEST JORDAN    MOSUNNY   63  39  42 S8        29.94F

$$

UTZ012>022-026-027-272300-

SOUTHERN/CENTRAL UTAH

CITY           SKY/WX    TMP DP  RH WIND       PRES   REMARKS
BLANDING       MOSUNNY   66  29  24 SW7       29.98S
BRYCE CANYON   MOSUNNY   58  31  35 NE15G25   30.03F
CEDAR CITY     PTSUNNY   69  31  24 W6G22     29.95F
DELTA          MOSUNNY   64  34  32 E6        29.93F
HANKSVILLE     MOSUNNY   77  28  16 NW10G16   29.86F
MILFORD        MOSUNNY   70  32  24 SW9       29.92F
MOAB/CYNLANDS  MOSUNNY   75  30  19 NW21G28   29.83F
PRICE          PTSUNNY   68  31  25 W15G32    29.92F
ST GEORGE      PTCLDY    82  36  18 CALM      29.85F
KANAB          PTSUNNY   77  30  18 W10G16    29.94

$$

REGIONAL REPORTS     COLORADO/ARIZONA

CITY           SKY/WX    TMP DP  RH WIND       PRES   REMARKS
CRAIG, CO      CLOUDY    52  40  63 SW12      29.94S
GRAND JUNCTION CLOUDY    65  32  29 N12       29.87F
RIFLE          CLOUDY    61  38  42 W13       29.91F
MONTROSE       CLOUDY    64  32  30 W20       29.93R
CORTEZ         SUNNY     71  27  19 W12G23    29.90F
PAGE, AZ       MOSUNNY   77  26  15 VRB6      29.86F
GRAND CANYON   PTSUNNY   65  26  23 MISG      30.03S
KINGMAN        MOSUNNY   85  28  12 W17G23    29.88F
FLAGSTAFF      PTSUNNY   62  25  24 VRB6      30.04F

$$

REGIONAL REPORTS    NEVADA/IDAHO/WYOMING

CITY           SKY/WX    TMP DP  RH WIND       PRES   REMARKS
LAS VEGAS, NV  MOSUNNY   88  29  12 W7        29.75F
ELY            CLOUDY    64  29  26 E5        29.98F
ELKO           MOSUNNY   69  33  26 W14       29.93F
POCATELLO, ID  MOSUNNY   70  34  26 W17G26    29.92S
BURLEY         MOSUNNY   63  36  36 W14G21    29.91F
EVANSTON, WY   CLOUDY    55  37  50 S10       30.00F
ROCK SPRINGS   CLOUDY    58  36  43 SW9       29.93F
KEMMERER         N/A     55  32  41 S8G17     29.98S

$$



USA.gov is the U.S. government's official web portal to all federal, state and local government web resources and services.